GW2254 Weather Reports


Display with metric or nautical units.
time (UTC)temp
F
wind
direction
speed
MPH
gust
MPH
rain 1hr
in
rain 24hr
in
rain mn
in
humidity
%
barometer
mb
20260504023504 45 360 0.0 0.0 0.00 0.00 0.00 65 1017.1
20260504023003 45 360 0.0 0.0 0.00 0.00 0.00 65 1017.2
20260504022504 45 360 0.0 0.0 0.00 0.00 0.00 65 1017.2
20260504022002 45 360 0.0 0.0 0.00 0.00 0.00 64 1017.2
20260504021501 46 360 0.0 0.0 0.00 0.00 0.00 64 1017.2
20260504021002 46 360 0.0 0.0 0.00 0.00 0.00 64 1017.2
20260504020501 46 360 0.0 0.0 0.00 0.00 0.00 63 1017.1
20260504020003 46 360 0.0 0.0 0.00 0.00 0.00 63 1017.1
20260504015502 47 360 0.0 0.0 0.00 0.00 0.00 62 1017.1
20260504015001 47 360 0.0 0.0 0.00 0.00 0.00 62 1017.0
20260504014608 47 360 0.0 0.0 0.00 0.00 0.00 62 1017.1
20260504014059 47 360 0.0 0.0 0.00 0.00 0.00 61 1017.1
20260504014002 48 360 0.0 0.0 0.00 0.00 0.00 61 1017.1
20260504013559 48 360 0.0 0.0 0.00 0.00 0.00 60 1017.1
20260504013109 48 360 0.0 0.0 0.00 0.00 0.00 60 1017.0
20260504012600 49 360 0.0 0.0 0.00 0.00 0.00 59 1017.0
20260504012059 49 360 0.0 0.0 0.00 0.00 0.00 58 1016.9
20260504011701 49 360 0.0 0.0 0.00 0.00 0.00 58 1016.9
20260504011058 50 360 0.0 0.0 0.00 0.00 0.00 56 1016.9
20260504010559 50 360 0.0 0.0 0.00 0.00 0.00 56 1016.8
20260504010058 50 360 0.0 0.0 0.00 0.00 0.00 55 1016.9
20260504005559 51 157 0.0 0.0 0.00 0.00 0.00 54 1016.8
20260504005102 51 360 0.0 0.0 0.00 0.00 0.00 53 1016.7
20260504004558 52 360 0.0 0.0 0.00 0.00 0.00 52 1016.7
20260504004058 52 157 0.0 0.0 0.00 0.00 0.00 52 1016.7
20260504003557 53 157 0.0 0.0 0.00 0.00 0.00 51 1016.6
20260504003103 53 157 0.0 0.0 0.00 0.00 0.00 50 1016.6
20260504002557 54 360 0.0 0.0 0.00 0.00 0.00 49 1016.5
20260504002057 54 161 0.0 0.0 0.00 0.00 0.00 48 1016.4
20260504001607 55 157 0.0 0.0 0.00 0.00 0.00 46 1016.4
20260504001056 56 157 0.0 0.0 0.00 0.00 0.00 45 1016.5
20260504000556 56 157 0.0 0.0 0.00 0.00 0.00 46 1016.4
20260504000129 57 157 0.0 0.0 0.00 0.00 0.00 46 1016.3
20260503235556 57 157 0.0 0.0 0.00 0.00 0.00 44 1016.1
20260503235056 58 157 0.0 0.0 0.00 0.00 0.00 43 1016.1
20260503234556 58 157 0.0 0.0 0.00 0.00 0.00 41 1016.1
20260503234056 58 157 0.0 0.0 0.00 0.00 0.00 40 1016.1
20260503233557 59 157 0.0 0.0 0.00 0.00 0.00 38 1016.1
20260503233055 59 157 0.0 0.0 0.00 0.00 0.00 39 1016.1
20260503232555 59 157 0.0 0.0 0.00 0.00 0.00 36 1016.0
20260503232055 60 157 0.0 0.0 0.00 0.00 0.00 36 1016.0
20260503231557 60 157 0.0 0.0 0.00 0.00 0.00 33 1016.0
20260503231055 60 157 0.0 0.0 0.00 0.00 0.00 34 1016.0
20260503230555 60 157 0.0 0.0 0.00 0.00 0.00 33 1015.9
20260503230103 60 157 0.0 1.0 0.00 0.00 0.00 33 1015.9
20260503225554 60 157 0.0 1.0 0.00 0.00 0.00 31 1015.9
20260503225054 60 157 0.0 2.0 0.00 0.00 0.00 31 1015.9
20260503224554 61 157 0.0 2.0 0.00 0.00 0.00 32 1016.0
20260503224054 61 157 0.0 1.0 0.00 0.00 0.00 32 1016.0
20260503223554 61 157 0.0 5.0 0.00 0.00 0.00 32 1016.0
20260503223054 61 157 0.0 5.0 0.00 0.00 0.00 33 1015.9
20260503222554 61 223 0.0 4.0 0.00 0.00 0.00 31 1016.1
20260503222052 61 223 0.0 2.0 0.00 0.00 0.00 30 1015.9
20260503221557 61 223 0.0 2.0 0.00 0.00 0.00 30 1016.0
20260503221052 61 223 0.0 3.0 0.00 0.00 0.00 32 1016.0
20260503220653 61 223 0.0 3.0 0.00 0.00 0.00 30 1016.0
20260503220053 61 221 0.0 4.0 0.00 0.00 0.00 31 1016.1
20260503215552 62 203 0.0 5.0 0.00 0.00 0.00 32 1016.0
20260503215052 62 180 1.0 5.0 0.00 0.00 0.00 30 1015.9
20260503214551 62 178 0.0 3.0 0.00 0.00 0.00 30 1015.8
20260503214051 62 172 1.0 7.0 0.00 0.00 0.00 30 1015.8
20260503213552 62 22 0.0 2.0 0.00 0.00 0.00 30 1015.9
20260503213051 62 25 0.0 4.0 0.00 0.00 0.00 31 1015.9
20260503212551 62 25 2.0 4.0 0.00 0.00 0.00 32 1015.8
20260503212051 62 56 1.0 4.0 0.00 0.00 0.00 28 1015.8
20260503211550 62 325 1.0 5.0 0.00 0.00 0.00 29 1015.8
20260503211050 62 360 2.0 10.0 0.00 0.00 0.00 29 1015.8
20260503210552 63 190 4.0 10.0 0.00 0.00 0.00 28 1015.8
20260503210050 63 360 1.0 3.0 0.00 0.00 0.00 29 1015.8
20260503205550 63 344 2.0 3.0 0.00 0.00 0.00 29 1015.8
20260503205050 64 252 0.0 4.0 0.00 0.00 0.00 27 1015.8
20260503204550 64 269 1.0 4.0 0.00 0.00 0.00 26 1015.8
20260503204049 65 118 1.0 4.0 0.00 0.00 0.00 27 1015.8
20260503203549 65 291 1.0 4.0 0.00 0.00 0.00 26 1015.9
20260503203051 65 225 1.0 7.0 0.00 0.00 0.00 27 1015.9
20260503202549 66 285 2.0 7.0 0.00 0.00 0.00 28 1016.0
20260503202049 66 171 1.0 4.0 0.00 0.00 0.00 26 1015.8
20260503201549 66 97 1.0 9.0 0.00 0.00 0.00 25 1016.0
20260503201048 66 281 1.0 9.0 0.00 0.00 0.00 25 1016.1
20260503200548 67 167 1.0 8.0 0.00 0.00 0.00 26 1016.1
20260503200055 67 170 1.0 8.0 0.00 0.00 0.00 27 1016.2
20260503195546 66 128 0.0 8.0 0.00 0.00 0.00 27 1016.2
20260503195047 66 185 2.0 8.0 0.00 0.00 0.00 26 1016.2
20260503194546 66 245 1.0 5.0 0.00 0.00 0.00 26 1016.4
20260503194046 66 234 0.0 5.0 0.00 0.00 0.00 26 1016.4
20260503193544 66 351 1.0 4.0 0.00 0.00 0.00 28 1016.5
20260503193048 65 287 1.0 4.0 0.00 0.00 0.00 27 1016.7
20260503192543 65 315 1.0 5.0 0.00 0.00 0.00 26 1016.6
20260503192047 65 310 1.0 5.0 0.00 0.00 0.00 26 1016.8
20260503191543 65 32 3.0 5.0 0.00 0.00 0.00 26 1016.7
20260503191043 65 246 2.0 11.0 0.00 0.00 0.00 27 1016.9
20260503190544 65 250 2.0 11.0 0.00 0.00 0.00 27 1016.8
20260503190047 65 265 2.0 7.0 0.00 0.00 0.00 26 1016.9
20260503185543 65 345 1.0 5.0 0.00 0.00 0.00 27 1016.9
20260503185042 65 334 2.0 5.0 0.00 0.00 0.00 28 1016.9
20260503184541 65 307 1.0 5.0 0.00 0.00 0.00 29 1017.1
20260503184044 65 72 1.0 5.0 0.00 0.00 0.00 30 1017.1
20260503183539 64 220 0.0 6.0 0.00 0.00 0.00 29 1017.2
20260503183053 64 305 2.0 6.0 0.00 0.00 0.00 27 1017.1
20260503182538 64 294 1.0 6.0 0.00 0.00 0.00 26 1017.1
20260503182038 64 314 1.0 10.0 0.00 0.00 0.00 28 1017.2
20260503181553 64 39 0.0 10.0 0.00 0.00 0.00 29 1017.3
20260503181038 64 294 2.0 5.0 0.00 0.00 0.00 28 1017.4
20260503180537 64 252 2.0 8.0 0.00 0.00 0.00 28 1017.3
20260503180037 64 282 2.0 7.0 0.00 0.00 0.00 31 1017.3
20260503175535 63 40 1.0 6.0 0.00 0.00 0.00 28 1017.3
20260503175035 63 15 2.0 8.0 0.00 0.00 0.00 29 1017.4
20260503174536 63 360 2.0 4.0 0.00 0.00 0.00 27 1017.4
20260503174034 63 360 2.0 4.0 0.00 0.00 0.00 31 1017.4
20260503173534 63 360 2.0 8.0 0.00 0.00 0.00 30 1017.5
20260503173034 63 188 4.0 8.0 0.00 0.00 0.00 27 1017.5
20260503172536 63 284 2.0 6.0 0.00 0.00 0.00 30 1017.6
20260503172036 63 195 1.0 5.0 0.00 0.00 0.00 30 1017.6
20260503171532 63 344 1.0 5.0 0.00 0.00 0.00 31 1017.7
20260503171032 63 360 2.0 5.0 0.00 0.00 0.00 28 1017.8
20260503170532 63 360 2.0 6.0 0.00 0.00 0.00 29 1017.8
20260503150519 59 360 2.0 8.0 0.00 0.00 0.00 31 1018.5
20260503131055 53 360 1.0 6.0 0.00 0.00 0.00 45 1017.9
20260503130558 52 57 1.0 6.0 0.00 0.00 0.00 44 1018.0
20260503110535 46 50 0.0 3.0 0.00 0.00 0.00 57 1017.1
20260503081511 48 151 0.0 6.0 0.00 0.00 0.00 64 1014.2
20260503081011 48 182 1.0 6.0 0.00 0.00 0.00 64 1014.1
20260503080510 48 42 0.0 0.0 0.00 0.00 0.00 65 1014.0
20260503072503 47 316 0.0 1.0 0.00 0.00 0.00 72 1013.7
20260503072002 47 316 0.0 0.0 0.00 0.00 0.00 74 1013.7
20260503071502 47 316 0.0 0.0 0.00 0.00 0.00 75 1013.6
20260503071001 47 316 0.0 0.0 0.00 0.00 0.00 76 1013.7
20260503070500 47 316 0.0 0.0 0.00 0.00 0.00 76 1013.5
20260503060120 46 316 0.0 0.0 0.00 0.00 0.00 77 1013.2
20260503055058 46 316 0.0 0.0 0.00 0.00 0.00 77 1013.2
20260503054600 46 316 0.0 0.0 0.00 0.00 0.00 77 1013.2
20260503054054 46 316 0.0 0.0 0.00 0.00 0.00 77 1013.2
20260503053554 46 316 0.0 0.0 0.00 0.00 0.00 77 1013.2
20260503053054 46 316 0.0 0.0 0.00 0.00 0.00 77 1013.2
20260503052553 46 316 0.0 0.0 0.00 0.00 0.00 77 1013.1
20260503052053 46 316 0.0 0.0 0.00 0.00 0.00 77 1013.1
20260503051554 46 316 0.0 0.0 0.00 0.00 0.00 77 1013.2
20260503051052 46 316 0.0 0.0 0.00 0.00 0.00 76 1013.2
20260503050551 46 316 0.0 0.0 0.00 0.00 0.00 76 1013.2
20260503050053 46 316 0.0 0.0 0.00 0.00 0.00 76 1013.2
20260503045553 46 316 0.0 0.0 0.00 0.00 0.00 76 1013.3
20260503045051 46 316 0.0 0.0 0.00 0.00 0.00 76 1013.3
20260503044550 46 316 0.0 0.0 0.00 0.00 0.00 76 1013.3
20260503044054 46 316 0.0 0.0 0.00 0.00 0.00 76 1013.3
20260503043549 46 316 0.0 0.0 0.00 0.00 0.00 76 1013.3
20260503043049 46 316 0.0 0.0 0.00 0.00 0.00 76 1013.4
20260503042548 46 316 0.0 0.0 0.00 0.00 0.00 76 1013.5
20260503042048 46 316 0.0 0.0 0.00 0.00 0.00 75 1013.4
20260503041551 46 316 0.0 0.0 0.00 0.00 0.00 75 1013.5
20260503041048 46 316 0.0 0.0 0.00 0.00 0.00 75 1013.4
20260503040546 46 316 0.0 0.0 0.00 0.00 0.00 75 1013.4
20260503040049 46 316 0.0 0.0 0.00 0.00 0.00 75 1013.4
20260503035545 46 315 0.0 0.0 0.00 0.00 0.00 75 1013.3
20260503035045 46 315 0.0 0.0 0.00 0.00 0.00 74 1013.4
20260503034551 46 315 0.0 1.0 0.00 0.00 0.00 74 1013.4
20260503034047 46 360 0.0 1.0 0.00 0.00 0.00 73 1013.4
20260503033544 47 360 0.0 0.0 0.00 0.00 0.00 73 1013.4
20260503033049 47 315 0.0 0.0 0.00 0.00 0.00 73 1013.4
20260503032543 47 315 0.0 0.0 0.00 0.00 0.00 73 1013.4
20260503032045 47 315 0.0 0.0 0.00 0.00 0.00 73 1013.1
20260503031541 47 315 0.0 0.0 0.00 0.00 0.00 72 1013.4
20260503031040 47 315 0.0 0.0 0.00 0.00 0.00 72 1013.4
20260503030541 47 315 0.0 0.0 0.00 0.00 0.00 71 1013.3
20260503030039 48 314 0.0 0.0 0.00 0.00 0.00 71 1013.2
20260503025539 48 360 0.0 0.0 0.00 0.00 0.00 71 1013.4
20260503025038 48 315 0.0 0.0 0.00 0.00 0.00 71 1013.3
20260503024536 48 315 0.0 0.0 0.00 0.00 0.00 71 1013.3
20260503024036 48 315 0.0 0.0 0.00 0.00 0.00 71 1013.3